FW5262 Weather Reports


Display with metric or nautical units.
time (UTC)temp
F
wind
direction
speed
MPH
gust
MPH
rain 1hr
in
rain 24hr
in
rain mn
in
humidity
%
barometer
mb
20260905184341 95 115 6.0 12.0 0.00 0.00 0.00 45 944.4
20260905183835 95 67 6.0 12.0 0.00 0.00 0.00 44 944.5
20260905183329 95 87 5.0 11.0 0.00 0.00 0.00 46 944.5
20260905182824 95 128 7.0 11.0 0.00 0.00 0.00 45 944.6
20260905182540 95 122 7.0 12.0 0.00 0.00 0.00 47 944.6
20260905181811 95 121 5.0 12.0 0.00 0.00 0.00 45 944.6
20260905181305 94 166 4.0 9.0 0.00 0.00 0.00 47 944.7
20260905180800 94 193 4.0 9.0 0.00 0.00 0.00 48 944.7
20260905180254 94 155 5.0 10.0 0.00 0.00 0.00 49 944.8
20260905175748 93 200 4.0 10.0 0.00 0.00 0.00 50 944.9
20260905175241 92 307 3.0 7.0 0.00 0.00 0.00 53 944.9
20260905174735 91 22 4.0 9.0 0.00 0.00 0.00 51 945.0
20260905174447 92 142 5.0 9.0 0.00 0.00 0.00 49 945.2
20260905173723 93 91 4.0 10.0 0.00 0.00 0.00 50 945.2
20260905173222 93 113 5.0 11.0 0.00 0.00 0.00 50 945.3
20260905172723 92 267 4.0 11.0 0.00 0.00 0.00 51 945.3
20260905172222 93 125 2.0 8.0 0.00 0.00 0.00 53 945.3
20260905171720 92 136 2.0 8.0 0.00 0.00 0.00 53 945.4
20260905171220 91 115 3.0 8.0 0.00 0.00 0.00 55 945.5
20260905170720 91 177 4.0 10.0 0.00 0.00 0.00 55 945.5
20260905170220 91 221 5.0 10.0 0.00 0.00 0.00 56 945.6
20260905165721 90 194 5.0 10.0 0.00 0.00 0.00 56 945.6
20260905165220 90 143 5.0 9.0 0.00 0.00 0.00 55 945.6
20260905164946 90 163 5.0 10.0 0.00 0.00 0.00 56 945.6
20260905164221 90 175 4.0 10.0 0.00 0.00 0.00 56 945.6
20260905163939 90 146 3.0 10.0 0.00 0.00 0.00 56 945.6
20260905163221 90 246 4.0 9.0 0.00 0.00 0.00 57 945.6
20260905162721 90 189 4.0 9.0 0.00 0.00 0.00 57 945.6
20260905162219 89 171 3.0 9.0 0.00 0.00 0.00 58 945.7
20260905161718 89 195 4.0 9.0 0.00 0.00 0.00 61 945.7
20260905161217 88 153 5.0 11.0 0.00 0.00 0.00 60 945.6
20260905160712 88 136 5.0 11.0 0.00 0.00 0.00 59 945.7
20260905160206 88 156 4.0 10.0 0.00 0.00 0.00 60 945.7
20260905155700 87 187 6.0 10.0 0.00 0.00 0.00 61 945.7
20260905155154 87 173 5.0 10.0 0.00 0.00 0.00 61 945.7
20260905154142 86 235 4.0 9.0 0.00 0.00 0.00 63 945.7
20260905153636 86 231 4.0 10.0 0.00 0.00 0.00 63 945.7
20260905153130 86 188 4.0 10.0 0.00 0.00 0.00 63 945.8
20260905152624 86 261 5.0 12.0 0.00 0.00 0.00 63 945.7
20260905152118 85 200 5.0 12.0 0.00 0.00 0.00 63 945.7
20260905151612 85 223 5.0 13.0 0.00 0.00 0.00 64 945.8
20260905151106 85 205 5.0 13.0 0.00 0.00 0.00 64 945.8
20260905150559 85 157 5.0 10.0 0.00 0.00 0.00 63 945.7
20260905150053 84 180 6.0 11.0 0.00 0.00 0.00 65 945.7
20260905145547 84 197 6.0 11.0 0.00 0.00 0.00 65 945.7
20260905145041 83 153 5.0 10.0 0.00 0.00 0.00 66 945.7
20260905144535 83 153 4.0 10.0 0.00 0.00 0.00 68 945.7
20260905144029 82 136 5.0 9.0 0.00 0.00 0.00 67 945.7
20260905143524 82 113 5.0 9.0 0.00 0.00 0.00 68 945.7
20260905143018 81 148 5.0 10.0 0.00 0.00 0.00 69 945.7
20260905142512 81 194 5.0 10.0 0.00 0.00 0.00 69 945.7
20260905142006 80 160 5.0 10.0 0.00 0.00 0.00 69 945.7
20260905141724 80 155 6.0 11.0 0.00 0.00 0.00 71 945.7
20260905140954 80 153 6.0 11.0 0.00 0.00 0.00 71 945.6
20260905140448 79 163 5.0 10.0 0.00 0.00 0.00 72 945.6
20260905135942 79 140 4.0 10.0 0.00 0.00 0.00 73 945.6
20260905134930 78 136 6.0 10.0 0.00 0.00 0.00 75 945.5
20260905134424 78 126 5.0 10.0 0.00 0.00 0.00 75 945.5
20260905133917 77 162 5.0 10.0 0.00 0.00 0.00 76 945.6
20260905133411 77 150 5.0 9.0 0.00 0.00 0.00 77 945.5
20260905133131 76 101 4.0 8.0 0.00 0.00 0.00 78 945.5
20260905132400 76 145 3.0 7.0 0.00 0.00 0.00 79 945.5
20260905131900 75 98 3.0 7.0 0.00 0.00 0.00 79 945.5
20260905131358 74 114 3.0 7.0 0.00 0.00 0.00 80 945.5
20260905131116 74 108 4.0 7.0 0.00 0.00 0.00 81 945.3
20260905130119 73 107 3.0 6.0 0.00 0.00 0.00 83 945.2
20260905125355 72 105 2.0 6.0 0.00 0.00 0.00 84 945.2
20260905124855 71 101 2.0 4.0 0.00 0.00 0.00 85 945.2
20260905124356 71 114 2.0 3.0 0.00 0.00 0.00 85 945.1
20260905123856 71 113 1.0 3.0 0.00 0.00 0.00 85 945.0
20260905123354 71 113 1.0 3.0 0.00 0.00 0.00 84 945.0
20260905122853 71 113 1.0 3.0 0.00 0.00 0.00 84 944.9
20260905122354 71 109 0.0 0.0 0.00 0.00 0.00 85 944.8
20260905122113 72 67 0.0 0.0 0.00 0.00 0.00 84 944.8
20260905121614 72 67 0.0 0.0 0.00 0.00 0.00 82 944.7
20260905120852 72 67 0.0 3.0 0.00 0.00 0.00 82 944.6
20260905120350 72 67 2.0 4.0 0.00 0.00 0.00 82 944.6
20260905115846 72 101 2.0 4.0 0.00 0.00 0.00 82 944.5
20260905115609 72 107 3.0 4.0 0.00 0.00 0.00 82 944.4
20260905114846 72 110 2.0 4.0 0.00 0.00 0.00 83 944.5
20260905114346 72 123 1.0 4.0 0.00 0.00 0.00 83 944.6
20260905113846 72 107 1.0 3.0 0.00 0.00 0.00 83 944.6
20260905113345 72 107 2.0 4.0 0.00 0.00 0.00 83 944.6
20260905112846 72 102 2.0 4.0 0.00 0.00 0.00 82 944.6
20260905112346 72 110 3.0 4.0 0.00 0.00 0.00 82 944.6
20260905111846 72 114 3.0 4.0 0.00 0.00 0.00 82 944.7
20260905111341 72 112 2.0 4.0 0.00 0.00 0.00 82 944.7
20260905110842 72 116 1.0 4.0 0.00 0.00 0.00 82 944.8
20260905110342 72 105 0.0 0.0 0.00 0.00 0.00 82 944.7
20260905105842 73 109 0.0 0.0 0.00 0.00 0.00 81 944.8
20260905105341 73 93 0.0 2.0 0.00 0.00 0.00 81 944.7
20260905104843 73 93 1.0 3.0 0.00 0.00 0.00 79 944.7
20260905104607 73 93 2.0 3.0 0.00 0.00 0.00 79 944.7
20260905103843 73 93 2.0 3.0 0.00 0.00 0.00 79 944.6
20260905103343 73 93 1.0 3.0 0.00 0.00 0.00 79 944.7
20260905102836 74 93 1.0 3.0 0.00 0.00 0.00 79 944.6
20260905102557 74 107 2.0 3.0 0.00 0.00 0.00 79 944.7
20260905101824 74 102 2.0 3.0 0.00 0.00 0.00 79 944.6
20260905101318 74 113 2.0 4.0 0.00 0.00 0.00 78 944.6
20260905100812 74 111 2.0 4.0 0.00 0.00 0.00 78 944.6
20260905100306 74 129 3.0 4.0 0.00 0.00 0.00 78 944.5
20260905095800 74 136 2.0 6.0 0.00 0.00 0.00 78 944.5
20260905095254 74 125 3.0 6.0 0.00 0.00 0.00 78 944.5
20260905094748 74 126 3.0 6.0 0.00 0.00 0.00 78 944.6
20260905094242 74 101 3.0 6.0 0.00 0.00 0.00 79 944.6
20260905093736 74 136 2.0 5.0 0.00 0.00 0.00 78 944.6
20260905093230 74 126 1.0 3.0 0.00 0.00 0.00 78 944.7
20260905092724 74 148 1.0 3.0 0.00 0.00 0.00 77 944.7
20260905092218 74 144 1.0 3.0 0.00 0.00 0.00 77 944.7
20260905091713 75 133 2.0 4.0 0.00 0.00 0.00 76 944.7
20260905091207 75 139 2.0 4.0 0.00 0.00 0.00 76 944.7
20260905090700 75 126 1.0 4.0 0.00 0.00 0.00 76 944.7
20260905090154 75 137 0.0 0.0 0.00 0.00 0.00 75 944.7
20260905085648 76 132 0.0 0.0 0.00 0.00 0.00 74 944.6
20260905085142 76 116 1.0 6.0 0.00 0.00 0.00 73 944.7
20260905084636 76 128 3.0 6.0 0.00 0.00 0.00 73 944.7
20260905084130 76 108 4.0 7.0 0.00 0.00 0.00 73 944.6
20260905083624 76 115 4.0 7.0 0.00 0.00 0.00 73 944.5
20260905083118 76 110 3.0 7.0 0.00 0.00 0.00 73 944.5
20260905082612 76 90 2.0 6.0 0.00 0.00 0.00 73 944.5
20260905082106 76 119 1.0 6.0 0.00 0.00 0.00 73 944.5
20260905081600 76 137 2.0 6.0 0.00 0.00 0.00 72 944.4
20260905081054 76 134 3.0 7.0 0.00 0.00 0.00 72 944.4
20260905080548 76 138 4.0 8.0 0.00 0.00 0.00 72 944.4
20260905080042 76 139 4.0 10.0 0.00 0.00 0.00 72 944.4
20260905075535 76 160 4.0 10.0 0.00 0.00 0.00 73 944.5
20260905075031 76 152 3.0 7.0 0.00 0.00 0.00 73 944.5
20260905074523 76 130 3.0 6.0 0.00 0.00 0.00 73 944.5
20260905074019 76 94 3.0 6.0 0.00 0.00 0.00 72 944.4
20260905073512 76 111 3.0 4.0 0.00 0.00 0.00 72 944.5
20260905073006 76 111 3.0 4.0 0.00 0.00 0.00 72 944.4
20260905072501 76 111 3.0 4.0 0.00 0.00 0.00 72 944.4
20260905071954 76 101 3.0 4.0 0.00 0.00 0.00 72 944.4
20260905071717 76 135 3.0 4.0 0.00 0.00 0.00 72 944.5
20260905070942 76 111 3.0 5.0 0.00 0.00 0.00 72 944.5
20260905070656 76 112 3.0 5.0 0.00 0.00 0.00 71 944.6
20260905065930 77 120 3.0 5.0 0.00 0.00 0.00 71 944.6
20260905065424 77 150 2.0 5.0 0.00 0.00 0.00 71 944.7
20260905064919 77 143 3.0 6.0 0.00 0.00 0.00 70 944.6
20260905064412 77 128 3.0 7.0 0.00 0.00 0.00 70 944.6
20260905063906 77 101 3.0 7.0 0.00 0.00 0.00 70 944.6
20260905063401 77 127 2.0 4.0 0.00 0.00 0.00 70 944.6
20260905062854 78 134 2.0 3.0 0.00 0.00 0.00 69 944.6
20260905062348 78 132 2.0 5.0 0.00 0.00 0.00 68 944.7
20260905061842 78 144 3.0 5.0 0.00 0.00 0.00 68 944.6
20260905060830 78 121 4.0 7.0 0.00 0.00 0.00 67 944.6
20260905060324 78 131 4.0 8.0 0.00 0.00 0.00 67 944.5
20260905055818 78 118 4.0 8.0 0.00 0.00 0.00 67 944.5
20260905055533 78 96 4.0 7.0 0.00 0.00 0.00 66 944.5
20260905054806 78 127 4.0 7.0 0.00 0.00 0.00 66 944.4
20260905054300 78 123 4.0 7.0 0.00 0.00 0.00 65 944.4
20260905053755 78 130 4.0 8.0 0.00 0.00 0.00 65 944.3
20260905053248 79 108 4.0 8.0 0.00 0.00 0.00 65 944.4
20260905052742 79 96 4.0 7.0 0.00 0.00 0.00 65 944.4
20260905052236 79 103 4.0 8.0 0.00 0.00 0.00 64 944.4
20260905051735 79 117 5.0 8.0 0.00 0.00 0.00 64 944.4
20260905051233 79 109 4.0 8.0 0.00 0.00 0.00 64 944.5
20260905050733 79 119 5.0 8.0 0.00 0.00 0.00 64 944.4
20260905050233 79 104 4.0 7.0 0.00 0.00 0.00 64 944.4
20260905045952 79 114 4.0 7.0 0.00 0.00 0.00 64 944.4
20260905045451 79 124 4.0 7.0 0.00 0.00 0.00 65 944.4
20260905044728 79 132 3.0 7.0 0.00 0.00 0.00 64 944.4
20260905044453 79 132 2.0 5.0 0.00 0.00 0.00 65 944.4
20260905043726 79 158 2.0 5.0 0.00 0.00 0.00 65 944.4
20260905043226 79 143 2.0 4.0 0.00 0.00 0.00 64 944.4
20260905042950 80 211 2.0 4.0 0.00 0.00 0.00 63 944.4
20260905041725 80 132 3.0 6.0 0.00 0.00 0.00 62 944.3
20260905041226 81 134 4.0 8.0 0.00 0.00 0.00 61 944.3
20260905040723 81 130 5.0 8.0 0.00 0.00 0.00 61 944.3
20260905040222 81 116 4.0 8.0 0.00 0.00 0.00 61 944.2
20260905035720 81 118 3.0 6.0 0.00 0.00 0.00 61 944.2
20260905035218 81 115 3.0 6.0 0.00 0.00 0.00 60 944.1
20260905034716 81 127 4.0 7.0 0.00 0.00 0.00 60 944.2
20260905034216 82 141 4.0 8.0 0.00 0.00 0.00 60 944.2
20260905033714 82 124 4.0 8.0 0.00 0.00 0.00 59 944.2
20260905033213 82 117 4.0 7.0 0.00 0.00 0.00 59 944.2
20260905032714 82 90 4.0 8.0 0.00 0.00 0.00 59 944.2
20260905032213 82 119 4.0 8.0 0.00 0.00 0.00 58 944.2
20260905031713 83 120 3.0 7.0 0.00 0.00 0.00 58 944.2
20260905031214 83 144 3.0 7.0 0.00 0.00 0.00 58 944.2
20260905030714 83 134 4.0 6.0 0.00 0.00 0.00 57 944.1
20260905030213 83 150 3.0 5.0 0.00 0.00 0.00 58 944.0
20260905025713 83 130 2.0 5.0 0.00 0.00 0.00 57 944.0
20260905025213 84 169 2.0 5.0 0.00 0.00 0.00 57 943.9
20260905024938 84 172 2.0 5.0 0.00 0.00 0.00 56 943.9
20260905024214 84 156 2.0 5.0 0.00 0.00 0.00 55 943.7
20260905023935 85 152 2.0 4.0 0.00 0.00 0.00 55 943.7
20260905023214 85 186 3.0 6.0 0.00 0.00 0.00 54 943.7
20260905022713 85 140 4.0 8.0 0.00 0.00 0.00 54 943.7
20260905022214 86 158 4.0 9.0 0.00 0.00 0.00 53 943.5
20260905021714 86 147 5.0 10.0 0.00 0.00 0.00 53 943.4
20260905021212 86 147 6.0 11.0 0.00 0.00 0.00 53 943.3
20260905020711 87 180 6.0 11.0 0.00 0.00 0.00 52 943.3
20260905020213 87 143 6.0 11.0 0.00 0.00 0.00 53 943.3
20260905015712 87 162 6.0 13.0 0.00 0.00 0.00 52 943.2
20260905015435 87 148 7.0 13.0 0.00 0.00 0.00 52 943.2
20260905014712 87 142 8.0 16.0 0.00 0.00 0.00 52 943.2
20260905014211 87 125 8.0 16.0 0.00 0.00 0.00 51 943.1
20260905013712 88 127 8.0 16.0 0.00 0.00 0.00 51 943.1
20260905013211 88 144 7.0 16.0 0.00 0.00 0.00 51 943.1
20260905012711 88 139 6.0 13.0 0.00 0.00 0.00 52 943.0
20260905012434 88 155 8.0 16.0 0.00 0.00 0.00 51 943.0
20260905011712 88 129 10.0 16.0 0.00 0.00 0.00 50 942.8
20260905011444 88 113 8.0 15.0 0.00 0.00 0.00 50 942.8
20260905010711 88 119 8.0 13.0 0.00 0.00 0.00 50 942.8
20260905010209 89 117 8.0 16.0 0.00 0.00 0.00 50 942.8
20260905005708 89 145 8.0 16.0 0.00 0.00 0.00 49 942.9
20260905005207 89 142 7.0 16.0 0.00 0.00 0.00 49 942.9
20260905004701 89 140 9.0 18.0 0.00 0.00 0.00 49 942.9
20260905004419 89 128 9.0 18.0 0.00 0.00 0.00 49 942.9
20260905003649 89 155 9.0 16.0 0.00 0.00 0.00 48 942.9
20260905003142 90 123 9.0 19.0 0.00 0.00 0.00 48 942.9
20260905002637 90 121 9.0 19.0 0.00 0.00 0.00 48 943.0
20260905002131 90 169 8.0 16.0 0.00 0.00 0.00 48 943.0
20260905001845 91 144 8.0 16.0 0.00 0.00 0.00 48 943.0
20260905001118 91 165 8.0 16.0 0.00 0.00 0.00 47 943.0
20260905000612 91 144 9.0 19.0 0.00 0.00 0.00 48 943.0
20260905000106 92 160 10.0 19.0 0.00 0.00 0.00 47 943.0
20260904235600 92 154 11.0 21.0 0.00 0.00 0.00 47 943.0
20260904235318 93 142 9.0 18.0 0.00 0.00 0.00 46 942.9
20260904234549 93 102 10.0 22.0 0.00 0.00 0.00 46 942.8
20260904234043 93 120 11.0 22.0 0.00 0.00 0.00 46 942.9
20260904233537 93 121 11.0 19.0 0.00 0.00 0.00 47 942.8
20260904233031 93 123 11.0 20.0 0.00 0.00 0.00 47 942.7
20260904232524 94 132 11.0 20.0 0.00 0.00 0.00 47 942.6
20260904232019 94 146 12.0 23.0 0.00 0.00 0.00 47 942.5
20260904231513 95 121 12.0 22.0 0.00 0.00 0.00 46 942.3
20260904231006 95 107 12.0 21.0 0.00 0.00 0.00 46 942.1
20260904230500 96 164 11.0 21.0 0.00 0.00 0.00 45 941.9
20260904225955 96 123 11.0 21.0 0.00 0.00 0.00 44 941.6
20260904225449 96 105 10.0 21.0 0.00 0.00 0.00 44 941.5
20260904224437 96 104 11.0 18.0 0.00 0.00 0.00 45 941.3
20260904223931 96 168 11.0 19.0 0.00 0.00 0.00 43 941.3
20260904223425 97 81 11.0 19.0 0.00 0.00 0.00 42 941.4
20260904223143 97 98 12.0 20.0 0.00 0.00 0.00 43 941.5
20260904222412 97 125 11.0 20.0 0.00 0.00 0.00 42 941.5
20260904222127 97 115 10.0 19.0 0.00 0.00 0.00 43 941.7
20260904221401 97 148 10.0 19.0 0.00 0.00 0.00 43 941.7
20260904220854 97 154 9.0 18.0 0.00 0.00 0.00 43 941.7
20260904220348 97 131 8.0 15.0 0.00 0.00 0.00 44 941.7
20260904215843 97 107 9.0 20.0 0.00 0.00 0.00 43 941.7
20260904215337 97 118 10.0 21.0 0.00 0.00 0.00 44 941.6
20260904214325 97 117 9.0 19.0 0.00 0.00 0.00 43 941.7
20260904213819 97 116 10.0 17.0 0.00 0.00 0.00 44 941.7
20260904213313 97 89 9.0 17.0 0.00 0.00 0.00 45 941.7
20260904212807 97 125 9.0 17.0 0.00 0.00 0.00 44 941.8
20260904212521 97 118 9.0 17.0 0.00 0.00 0.00 44 942.0
20260904211755 97 100 9.0 21.0 0.00 0.00 0.00 44 941.8
20260904211505 97 148 8.0 20.0 0.00 0.00 0.00 46 941.9
20260904210742 97 128 8.0 19.0 0.00 0.00 0.00 46 941.9
20260904210237 97 84 9.0 19.0 0.00 0.00 0.00 46 942.0
20260904205731 97 79 8.0 15.0 0.00 0.00 0.00 46 942.1
20260904205225 97 146 7.0 14.0 0.00 0.00 0.00 46 942.3
20260904204719 96 187 7.0 17.0 0.00 0.00 0.00 47 942.3
20260904204434 97 119 8.0 17.0 0.00 0.00 0.00 47 942.3
20260904203707 97 133 8.0 15.0 0.00 0.00 0.00 46 942.5
20260904203201 97 211 8.0 12.0 0.00 0.00 0.00 45 942.5
20260904202655 97 167 8.0 13.0 0.00 0.00 0.00 46 942.7
20260904201903 97 144 6.0 15.0 0.00 0.00 0.00 46 942.8
20260904201139 97 115 5.0 11.0 0.00 0.00 0.00 45 942.9
20260904200638 97 126 5.0 14.0 0.00 0.00 0.00 46 943.0
20260904200139 97 169 5.0 14.0 0.00 0.00 0.00 46 943.0
20260904195639 97 164 6.0 12.0 0.00 0.00 0.00 46 943.1
20260904195139 96 184 7.0 16.0 0.00 0.00 0.00 45 943.1
20260904194638 96 193 7.0 16.0 0.00 0.00 0.00 48 943.2
20260904194140 96 141 6.0 12.0 0.00 0.00 0.00 48 943.2
20260904193640 96 138 6.0 12.0 0.00 0.00 0.00 48 943.4
20260904193143 95 150 7.0 14.0 0.00 0.00 0.00 48 943.3
20260904192638 95 162 8.0 15.0 0.00 0.00 0.00 48 943.4
20260904192403 94 160 8.0 15.0 0.00 0.00 0.00 50 943.4
20260904191638 94 193 7.0 13.0 0.00 0.00 0.00 50 943.6
20260904191402 94 139 6.0 13.0 0.00 0.00 0.00 51 943.6
20260904190639 94 186 6.0 12.0 0.00 0.00 0.00 51 943.8
20260904190139 94 221 6.0 13.0 0.00 0.00 0.00 51 943.9
20260904185634 93 167 7.0 14.0 0.00 0.00 0.00 51 943.9
20260904185134 93 172 7.0 15.0 0.00 0.00 0.00 52 944.0
20260904184635 93 144 7.0 22.0 0.00 0.00 0.00 53 944.0